This demonstration page uses our WeatherBlox Daily Observations layout. Learn more.

Left ArrowRight Arrow

Hourly Observations for August 8, 2022

Temp ( °F °C ) Dew Point ( °F °C ) Humidity (%) Winds ( mph kmh ) Pressure ( in mb ) Visibility ( mi km ) Precip ( " mm )
12:53 am 00:53 Clear 52 11.1 46 7.8 80 80 Calm 30.11 1020 10 16 0.00 0.00
1:53 am 01:53 Clear 55 12.8 46 7.8 72 72 Calm 30.09 1019 10 16 0.00 0.00
2:53 am 02:53 Clear 53 11.7 45 7.2 74 74 ESE 3 6 30.10 1019 10 16 0.00 0.00
3:53 am 03:53 Clear 49 9.4 44 6.7 83 83 ESE 3 6 30.11 1020 10 16 0.00 0.00
4:53 am 04:53 Clear 48 8.9 43 6.1 83 83 Calm 30.12 1020 10 16 0.00 0.00
5:53 am 05:53 Clear 47 8.3 42 5.6 83 83 Calm 30.13 1020 10 16 0.00 0.00
6:53 am 06:53 Sunny 50 10 44 6.7 80 80 E 5 7 30.14 1021 10 16 0.00 0.00
7:53 am 07:53 Mostly Sunny 53 11.7 47 8.3 80 80 Calm 30.16 1021 10 16 0.00 0.00
8:53 am 08:53 Sunny 62 16.7 48 8.9 60 60 Calm 30.17 1022 10 16 0.00 0.00
9:53 am 09:53 Sunny 71 21.7 47 8.3 42 42 Calm 30.14 1021 10 16 0.00 0.00
10:53 am 10:53 Sunny 78 25.6 41 5 27 27 Calm 30.11 1020 10 16 0.00 0.00
11:53 am 11:53 Sunny 81 27.2 44 6.7 27 27 Calm 30.08 1019 10 16 0.00 0.00
12:53 pm 12:53 Sunny 85 29.4 43 6.1 23 23 VRB 5 7 30.07 1018 10 16 0.00 0.00
1:53 pm 13:53 Sunny 88 31.1 38 3.3 17 17 SSW 7 11 30.03 1017 10 16 0.00 0.00
2:53 pm 14:53 Sunny 90 32.2 36 2.2 15 15 undefined N/A 30.01 1016 10 16 0.00 0.00
3:53 pm 15:53 Mostly Sunny 90 32.2 37 2.8 16 16 VRB 6 9 29.99 1016 10 16 0.00 0.00
4:53 pm 16:53 Mostly Sunny 90 32.2 36 2.2 15 15 VRB 7 11 29.98 1015 10 16 0.00 0.00
5:53 pm 17:53 Sunny 89 31.7 35 1.7 15 15 WNW 8 13 29.98 1015 10 16 0.00 0.00
6:53 pm 18:53 Sunny 87 30.6 35 1.7 16 16 W 7 11 29.97 1015 10 16 0.00 0.00
7:53 pm 19:53 Sunny 79 26.1 43 6.1 28 28 W 5 7 29.99 1016 10 16 0.00 0.00
8:53 pm 20:53 Clear 68 20 40 4.4 36 36 SSW 3 6 30.01 1016 10 16 0.00 0.00
9:53 pm 21:53 Clear 65 18.3 39 3.9 38 38 ESE 5 7 30.02 1017 10 16 0.00 0.00
10:53 pm 22:53 undefined 59 15 44 6.7 58 58 Calm 30.03 1017 10 16 0.00 0.00
11:53 pm 23:53 Clear 56 13.3 44 6.7 64 64 SSE 3 6 30.05 1018 10 16 0.00 0.00

Powered by AerisWeather